Regional Weather Roundup
Issued by NWS Newport/Morehead, NC

Current Version | Previous Version | Graphics & Text | Print | Product List | Glossary Off
Versions: 1 2 3 4 5 6 7 8 9 10 11 12 13 14 15 16 17 18 19 20 21 22 23 24 25 26 27 28 29 30 31 32 33 34 35 36 37 38 39 40 41 42 43 44 45 46 47 48 49 50
000 ASUS42 KMHX 092025 RWRMHX WEATHER ROUNDUP FOR EASTERN NORTH CAROLINA NATIONAL WEATHER SERVICE NEWPORT/MOREHEAD CITY NC 300 PM EST TUE FEB 09 2016 NOTE: "FAIR" INDICATES FEW OR NO CLOUDS BELOW 12,000 FEET WITH NO SIGNIFICANT WEATHER AND/OR OBSTRUCTIONS TO VISIBILITY NCZ015>017-031-032-045>047-102-103-092100- NORTH COAST CITY SKY/WX TMP DP RH WIND PRES REMARKS EDENTON PTSUNNY 48 32 53 W12 29.60R ELIZABETH CITY CLOUDY 46 28 49 SW14 29.58R KITTY HAWK MOCLDY 47 32 55 W8G16 29.58R MANTEO MOSUNNY 47 30 51 W10 29.60R $$ NCZ045>047-081-094-103-104-092100- CENTRAL COAST CITY SKY/WX TMP DP RH WIND PRES REMARKS FRISCO PTSUNNY 47 34 60 W10G16 29.62S SWANQUARTER N/A 46 N/A N/A NW3G10 29.59S $$ NCZ095-097-098-100-101-092100- SOUTHERN COAST CITY SKY/WX TMP DP RH WIND PRES REMARKS BEAUFORT CLOUDY 46 31 55 SW21G30 29.64R CEDAR ISLAND N/A 46 N/A N/A SW8G17 29.68S JACKSONVILLE MOSUNNY 45 25 45 W12G22 29.65R PINEY ISLAND CLOUDY N/A N/A N/A W12 29.62R WILMINGTON MOSUNNY 48 25 40 W18 29.68R $$ NCZ011>013-027>030-043-044-078>080-089-090>093-098-092100- COASTAL PLAIN CITY SKY/WX TMP DP RH WIND PRES REMARKS AHOSKIE PTSUNNY 46 29 52 CALM 29.60R CLINTON MOSUNNY 44 26 47 SW16G29 29.67S ELIZABETHTOWN PTSUNNY 44 25 46 SW9G18 29.69R GOLDSBORO PTSUNNY 46 27 46 W25 29.62R GREENVILLE MOSUNNY 43 36 75 W9 29.66S HAVELOCK PTSUNNY 49 29 46 W17 29.64R KENANSVILLE CLOUDY 45 23 43 SW9 29.67R KINSTON MOSUNNY 46 27 46 SW14G24 29.64R NEW BERN PTSUNNY 46 27 47 W15G23 29.65R RICHLANDS PTSUNNY 45 23 42 W9G16 29.66S ROCKY MOUNT CLOUDY 43 33 68 SW9 29.62R WASHINGTON LGT RAIN 42 34 72 NW10 29.63R WHITEVILLE CLOUDY 44 24 45 W10G22 29.70R $$ AMZ130-135-150-152-154-156-158-170-250-252-270-ANZ085-086-088-633-658-670-092100- MARINE OBSERVATIONS STATION/POSITION TIME TEMP WIND PRES WAVE SWELL AIR SEA DIR/SP/G HT/PER HT/PER (UTC) (F) (DEG/KT/KT) (MB) (FT/S) (FT/S) CHESAPEAKE LIGHT 2000 45 290/ 14/ 15 1001.5 64 E VA BEACH 1950 44 51 280/ 12/ 17 1000.9 10/15 10/15 DUCK 2000 46 250/ 17/ 21 1001.1 2 E DUCK 2011 45 N/A 7/15 7/15 OREGON INLET 2000 47 45 240/ 14/ 18 1001.9 13E OREGON INLT 2000 47 N/A 11/15 10/15 HATTERAS CG 2000 45 52 280/ 16/ 19 1002.5 DIAMOND BUOY 1950 48 74 290/ 16/ 19 1003.0 12/14 11/14 CAPE LOOKOUT NOT AVBL BEAUFORT LAB 2000 46 47 230/ 7/ 15 1002.8 30 SE NEW RVR IN 2008 47 60 1004.6 30 SE NEW RVR IN 1925 60 N/A 9/ 8 3/13 27 SE WRIGHTSVLE 2008 48 60 270/ 23/ 31 1004.2 5 SE WRIGHTSVLE 1908 46 51 260/ 16/ 25 1005.2 225 S CAPE HAT 1950 57 69 280/ 29/ 35 N/A 16/10 10/13 41 SE CHARLESTON 1950 48 65 270/ 23/ 33 1007.3 9/ 7 2/12 $$

USA.gov is the U.S. government's official web portal to all federal, state and local government web resources and services.